[Date Prev][Date Next][Thread Prev][Thread Next] - [Date Index][Thread Index][Author Index]
2 Line ISS Keps 10-31
- Subject: [sarex] 2 Line ISS Keps 10-31
- From: "Dave Larsen PhD" <doc@xxxxxxxxxxx>
- Date: Mon, 30 Oct 2006 18:08:31 -0800
ISS
1 25544U 98067A 06304.04280258 .00019307 00000-0 11714-3 0 9630
2 25544 051.6339 207.4189 0012422 155.0964 286.5786 15.77468291454590
----
Sent via sarex@amsat.org. Opinions expressed are those of the author.
Not an AMSAT member? Join now to support the amateur satellite program!
Subscription settings: http://amsat.org/mailman/listinfo/sarex
AMSAT Home